Location: Newark
(49.0000°N, 111.9667°W)
Time: 11:43:43
(UTC+00:00)

Falcon 9 debris - Visible Passes

Search period start: 20 July 2019 00:00
Search period end: 30 July 2019 00:00
Orbit: 431 x 439 km, 53.0° (Epoch: 19 July)

Date Brightness Start Highest point End Pass type
(mag) Time Alt. Az. Time Alt. Az. Time Alt. Az.
20 Jul 3.7 08:25:10 43° ESE 08:25:10 43° ESE 08:27:59 10° ENE visible
20 Jul 3.9 09:58:26 11° W 10:01:43 51° NNW 10:05:05 10° ENE visible
21 Jul 5.0 07:44:08 21° E 07:44:08 21° E 07:45:38 10° ENE visible
21 Jul 3.6 09:17:24 22° W 09:19:24 60° NNW 09:22:49 10° ENE visible
21 Jul 4.4 10:53:30 10° WNW 10:56:48 41° N 11:00:05 10° ENE visible
22 Jul 5.8 07:03:04 11° E 07:03:04 11° E 07:03:12 10° E visible
22 Jul 3.2 08:36:20 50° W 08:37:06 74° NNW 08:40:33 10° ENE visible
22 Jul 4.4 10:11:09 10° WNW 10:14:27 40° N 10:17:44 10° ENE visible
23 Jul 3.2 07:55:12 68° ENE 07:55:12 68° ENE 07:58:17 10° ENE visible
23 Jul 4.3 09:28:47 10° WNW 09:32:06 42° N 09:35:24 10° ENE visible
23 Jul 4.0 11:06:08 10° WNW 11:09:32 54° NNE 11:12:54 10° E visible
24 Jul 4.4 07:14:00 31° ENE 07:14:00 31° ENE 07:16:00 10° ENE visible
24 Jul 4.2 08:47:16 16° W 08:49:44 45° N 08:53:05 10° ENE visible
24 Jul 4.2 10:23:50 10° WNW 10:27:11 47° N 10:30:32 10° E visible
25 Jul 5.2 06:32:41 17° ENE 06:32:41 17° ENE 06:33:41 10° ENE visible
25 Jul 3.9 08:05:56 29° WNW 08:07:24 51° NNW 08:10:47 10° ENE visible
25 Jul 4.4 09:41:31 10° WNW 09:44:50 43° N 09:48:09 10° E visible
26 Jul 5.7 05:51:09 11° ENE 05:51:09 11° ENE 05:51:19 10° ENE visible
26 Jul 3.6 07:24:21 47° WNW 07:25:04 61° NNW 07:28:31 10° ENE visible
26 Jul 4.4 08:59:11 10° WNW 09:02:29 41° N 09:05:46 10° ENE visible
26 Jul 3.2 10:36:21 10° WNW 10:39:49 80° NNE 10:43:15 10° ESE visible
27 Jul 3.2 06:41:58 49° W 06:42:46 75° NNW 06:46:14 10° ENE visible
27 Jul 4.4 08:16:49 10° WNW 08:20:07 41° N 08:23:25 10° ENE visible
27 Jul 3.6 09:54:04 10° WNW 09:57:30 64° NNE 10:00:56 10° ESE visible
28 Jul 4.6 04:21:27 10° S 04:23:51 18° SE 04:26:15 10° E visible
28 Jul 3.0 05:57:01 10° WSW 06:00:29 85° SSE 06:03:57 10° ENE visible
28 Jul 4.4 07:34:26 10° W 07:37:45 42° N 07:41:04 10° ENE visible
28 Jul 3.9 09:11:47 10° WNW 09:15:11 53° NNE 09:18:34 10° E visible
28 Jul 3.4 10:48:54 10° WNW 10:52:12 43° SW 10:55:29 10° SE visible
29 Jul 3.0 05:14:48 10° SW 05:18:13 64° SSE 05:21:39 10° ENE visible
29 Jul 4.2 06:52:03 10° W 06:55:23 46° N 06:58:45 10° ENE visible
29 Jul 4.2 08:29:29 10° WNW 08:32:50 46° N 08:36:11 10° E visible
29 Jul 3.1 10:06:34 10° WNW 10:09:59 60° SSW 10:13:23 10° SE visible
